CW9086 Weather Reports


Display with metric or nautical units.
time (UTC)temp
F
wind
direction
speed
MPH
gust
MPH
rain 1hr
in
rain 24hr
in
rain mn
in
humidity
%
barometer
mb
20260906141606 53 2 0.0 0.0 0.00 0.02 0.00 86 1014.4
20260906141105 53 2 0.0 0.0 0.00 0.02 0.00 86 1014.3
20260906140604 53 1 0.0 0.0 0.00 0.02 0.00 86 1014.1
20260906140106 53 3 0.0 0.0 0.00 0.02 0.00 86 1014.2
20260906135104 53 3 0.0 0.0 0.00 0.02 0.00 86 1014.2
20260906134605 53 3 0.0 0.0 0.00 0.02 0.00 86 1014.2
20260906133605 53 2 0.0 0.0 0.00 0.02 0.00 86 1014.1
20260906133108 53 3 0.0 0.0 0.00 0.02 0.00 86 1014.1
20260906132605 53 3 0.0 0.0 0.00 0.02 0.00 86 1014.0
20260906132105 53 3 0.0 0.0 0.00 0.02 0.00 86 1014.0
20260906131607 53 1 0.0 0.0 0.00 0.02 0.00 86 1014.0
20260906131104 53 1 0.0 0.0 0.00 0.02 0.00 86 1014.0
20260906130606 53 3 0.0 0.0 0.00 0.02 0.00 86 1014.1
20260906130106 53 3 0.0 0.0 0.00 0.02 0.00 86 1014.1
20260906125607 53 2 0.0 0.0 0.00 0.02 0.00 86 1014.0
20260906125108 53 2 0.0 0.0 0.00 0.02 0.00 86 1014.0
20260906124606 53 3 0.0 0.0 0.00 0.02 0.00 86 1014.0
20260906124104 53 1 0.0 0.0 0.00 0.02 0.00 86 1014.0
20260906123604 53 2 0.0 0.0 0.00 0.02 0.00 86 1014.0
20260906123106 53 3 0.0 0.0 0.00 0.02 0.00 86 1013.9
20260906122605 53 3 0.0 0.0 0.00 0.02 0.00 86 1014.0
20260906122105 53 3 0.0 0.0 0.00 0.02 0.00 86 1014.0
20260906121606 53 2 0.0 0.0 0.00 0.02 0.00 86 1013.9
20260906120106 53 3 0.0 0.0 0.00 0.02 0.00 86 1014.1
20260906115606 53 3 0.0 0.0 0.00 0.02 0.00 86 1014.1
20260906115105 53 1 0.0 0.0 0.00 0.02 0.00 86 1014.1
20260906114605 53 2 0.0 0.0 0.00 0.02 0.00 86 1014.1
20260906114106 53 3 0.0 0.0 0.00 0.02 0.00 86 1014.0
20260906113605 53 3 0.0 0.0 0.00 0.02 0.00 86 1014.0
20260906113105 53 3 0.0 0.0 0.00 0.02 0.00 86 1014.0
20260906112604 53 2 0.0 0.0 0.00 0.02 0.00 86 1014.1
20260906112105 53 2 0.0 0.0 0.00 0.02 0.00 86 1014.1
20260906111104 53 2 0.0 0.0 0.00 0.02 0.00 86 1014.1
20260906110105 53 3 0.0 0.0 0.00 0.02 0.00 86 1014.2
20260906105604 53 3 0.0 0.0 0.00 0.02 0.00 86 1014.2
20260906105105 53 2 0.0 0.0 0.00 0.02 0.00 86 1014.2
20260906104604 53 3 0.0 0.0 0.00 0.02 0.00 86 1014.2
20260906104106 53 2 0.0 0.0 0.00 0.02 0.00 86 1014.1
20260906103604 53 3 0.0 0.0 0.00 0.02 0.00 86 1014.1
20260906102604 53 2 0.0 0.0 0.00 0.02 0.00 86 1014.2
20260906102105 53 3 0.0 0.0 0.00 0.02 0.00 86 1014.2
20260906101604 53 2 0.0 0.0 0.00 0.02 0.00 86 1014.2
20260906101106 53 2 0.0 0.0 0.00 0.02 0.00 86 1014.2
20260906100604 53 3 0.0 0.0 0.00 0.02 0.00 86 1014.2
20260906100104 53 3 0.0 0.0 0.00 0.02 0.00 86 1014.1
20260906095606 53 2 0.0 0.0 0.00 0.02 0.00 86 1014.1
20260906095116 53 2 0.0 0.0 0.00 0.02 0.00 86 1014.2
20260906094606 53 3 0.0 0.0 0.00 0.02 0.00 86 1014.2
20260906094112 53 3 0.0 0.0 0.00 0.02 0.00 86 1014.1
20260906093604 53 3 0.0 0.0 0.00 0.02 0.00 86 1014.2
20260906092604 53 3 0.0 0.0 0.00 0.02 0.00 86 1014.1
20260906091605 53 2 0.0 0.0 0.00 0.02 0.00 86 1014.2
20260906091105 53 3 0.0 0.0 0.00 0.02 0.00 86 1014.2
20260906090604 53 3 0.0 0.0 0.00 0.02 0.00 86 1014.3
20260906090104 53 1 0.0 0.0 0.00 0.02 0.00 86 1014.3
20260906085605 53 1 0.0 0.0 0.00 0.02 0.00 86 1014.3
20260906085104 53 2 0.0 0.0 0.00 0.02 0.00 86 1014.2
20260906084605 53 3 0.0 0.0 0.00 0.02 0.00 86 1014.2
20260906084105 53 2 0.0 0.0 0.00 0.02 0.00 86 1014.2
20260906083604 53 3 0.0 0.0 0.00 0.02 0.00 86 1014.2
20260906083105 53 3 0.0 0.0 0.00 0.02 0.00 86 1014.2
20260906081605 53 212 0.0 0.0 0.00 0.02 0.00 86 1014.4
20260906081105 53 212 0.0 0.0 0.00 0.02 0.00 86 1014.4
20260906080105 54 212 0.0 0.0 0.00 0.02 0.00 86 1014.4
20260906075604 54 212 0.0 0.0 0.00 0.02 0.00 85 1014.4
20260906075105 54 212 0.0 0.0 0.00 0.02 0.00 85 1014.4
20260906074604 54 212 0.0 0.0 0.00 0.02 0.00 85 1014.4
20260906074105 54 212 0.0 0.0 0.00 0.02 0.00 85 1014.4
20260906073604 54 212 0.0 0.0 0.00 0.02 0.00 85 1014.4
20260906073104 54 212 0.0 0.0 0.00 0.02 0.00 85 1014.5
20260906072604 54 212 0.0 0.0 0.00 0.02 0.00 85 1014.5
20260906072105 54 212 0.0 0.0 0.00 0.02 0.00 85 1014.6
20260906071604 54 212 0.0 0.0 0.00 0.02 0.00 85 1014.5
20260906071107 54 212 0.0 0.0 0.00 0.02 0.00 85 1014.5
20260906070606 54 212 0.0 0.0 0.00 0.02 0.00 85 1014.4
20260906065606 55 212 0.0 0.0 0.00 0.02 0.02 85 1014.5
20260906065104 54 212 0.0 0.0 0.00 0.02 0.02 84 1014.5
20260906064604 55 212 0.0 0.0 0.00 0.02 0.02 84 1014.6
20260906064104 55 212 0.0 0.0 0.00 0.02 0.02 84 1014.6
20260906063606 55 212 0.0 0.0 0.00 0.02 0.02 84 1014.6
20260906063105 55 212 0.0 0.0 0.00 0.02 0.02 84 1014.6
20260906062604 55 212 0.0 0.0 0.00 0.02 0.02 84 1014.6
20260906062105 55 212 0.0 0.0 0.00 0.02 0.02 83 1014.6
20260906061606 55 212 0.0 0.0 0.00 0.02 0.02 84 1014.6
20260906060606 55 212 0.0 0.0 0.00 0.02 0.02 83 1014.6
20260906055104 55 212 0.0 0.0 0.00 0.02 0.02 83 1014.6
20260906054605 56 212 0.0 0.0 0.00 0.02 0.02 83 1014.7
20260906054106 56 212 0.0 0.0 0.00 0.02 0.02 82 1014.7
20260906053605 56 212 0.0 0.0 0.00 0.02 0.02 82 1014.7
20260906052104 56 212 0.0 0.0 0.00 0.02 0.02 82 1014.8
20260906051606 56 212 0.0 0.0 0.00 0.02 0.02 82 1014.9
20260906051104 57 212 0.0 0.0 0.00 0.02 0.02 82 1014.9
20260906050104 57 212 0.0 0.0 0.00 0.02 0.02 82 1014.9
20260906045604 57 212 0.0 0.0 0.00 0.02 0.02 82 1015.0
20260906045106 57 212 0.0 0.0 0.00 0.02 0.02 82 1015.0
20260906044604 58 212 0.0 0.0 0.00 0.02 0.02 82 1015.0
20260906044104 58 212 0.0 0.0 0.00 0.02 0.02 82 1015.0
20260906043604 58 212 0.0 0.0 0.00 0.02 0.02 81 1015.0
20260906043104 58 212 0.0 0.0 0.00 0.02 0.02 81 1015.0
20260906042604 58 212 0.0 0.0 0.00 0.02 0.02 81 1015.0
20260906042104 59 212 0.0 0.0 0.00 0.02 0.02 81 1014.9
20260906041605 59 212 0.0 0.0 0.00 0.02 0.02 81 1015.0
20260906041104 59 212 0.0 0.0 0.00 0.02 0.02 81 1014.9
20260906040604 59 212 0.0 0.0 0.00 0.02 0.02 81 1014.9
20260906040104 59 212 0.0 0.0 0.00 0.02 0.02 80 1014.8
20260906035604 60 212 0.0 0.0 0.00 0.02 0.02 80 1014.8
20260906033605 61 212 0.0 0.0 0.00 0.02 0.02 80 1014.7
20260906033105 61 212 0.0 0.0 0.00 0.02 0.02 80 1014.7
20260906032604 61 212 0.0 0.0 0.00 0.02 0.02 80 1014.8
20260906032105 62 212 0.0 0.0 0.00 0.02 0.02 80 1014.8
20260906031604 62 212 0.0 1.0 0.00 0.02 0.02 80 1014.8
20260906031105 62 212 0.0 1.0 0.00 0.02 0.02 80 1014.7
20260906030604 62 212 0.0 1.0 0.01 0.02 0.02 80 1014.7
20260906030105 63 212 0.0 1.0 0.01 0.02 0.02 80 1014.6
20260906025605 63 212 0.0 1.0 0.01 0.02 0.02 80 1014.6
20260906024604 64 212 0.0 0.0 0.01 0.02 0.02 80 1014.7
20260906024104 64 212 0.0 0.0 0.01 0.02 0.02 80 1014.7
20260906022604 64 212 0.0 2.0 0.02 0.02 0.02 80 1014.7
20260906021604 65 212 0.0 3.0 0.02 0.02 0.02 79 1014.8
20260906020604 65 212 0.0 1.0 0.01 0.01 0.01 79 1015.0
20260906020104 65 212 0.0 2.0 0.01 0.01 0.01 78 1015.0
20260906015604 65 212 0.0 2.0 0.01 0.01 0.01 77 1015.1
20260906015104 65 212 0.0 2.0 0.01 0.01 0.01 77 1015.2
20260906014604 65 212 1.0 2.0 0.01 0.01 0.01 77 1015.3
20260906014104 65 212 0.0 3.0 0.01 0.01 0.01 76 1015.3
20260906013605 65 212 1.0 3.0 0.00 0.00 0.00 76 1015.3
20260906013104 65 212 1.0 3.0 0.00 0.00 0.00 76 1015.3
20260906012605 65 213 0.0 3.0 0.00 0.00 0.00 76 1015.4
20260906011623 66 210 2.0 5.0 0.00 0.00 0.00 76 1015.3
20260906011108 66 212 2.0 5.0 0.00 0.00 0.00 76 1015.3
20260906010605 66 213 1.0 3.0 0.00 0.00 0.00 75 1015.3
20260906005606 66 213 1.0 3.0 0.00 0.00 0.00 75 1015.0
20260906004104 67 211 2.0 3.0 0.00 0.00 0.00 76 1015.0
20260906003604 68 212 1.0 3.0 0.00 0.00 0.00 75 1015.1
20260906003105 68 212 1.0 3.0 0.00 0.00 0.00 75 1015.1
20260906002605 69 212 1.0 3.0 0.00 0.00 0.00 74 1015.1
20260906001606 69 212 0.0 3.0 0.00 0.00 0.00 73 1014.9
20260906001106 70 212 1.0 3.0 0.00 0.00 0.00 73 1014.8
20260906000105 69 212 1.0 2.0 0.00 0.00 0.00 74 1014.8
20260905235605 69 212 1.0 2.0 0.00 0.00 0.00 74 1014.8
20260905235106 69 212 1.0 3.0 0.00 0.00 0.00 74 1014.9
20260905234606 69 209 1.0 3.0 0.00 0.00 0.00 74 1014.9
20260905234104 69 195 1.0 2.0 0.00 0.00 0.00 74 1014.9
20260905233605 69 211 0.0 3.0 0.00 0.00 0.00 74 1014.9
20260905233105 69 212 1.0 3.0 0.00 0.00 0.00 73 1014.9
20260905232104 70 212 0.0 2.0 0.00 0.00 0.00 75 1014.8
20260905231606 70 212 1.0 3.0 0.00 0.00 0.00 74 1014.8
20260905231105 70 212 0.0 3.0 0.00 0.00 0.00 73 1014.9
20260905230605 70 224 0.0 3.0 0.00 0.00 0.00 72 1015.0
20260905230104 70 196 1.0 3.0 0.00 0.00 0.00 73 1015.0
20260905224605 69 209 1.0 3.0 0.00 0.00 0.00 74 1015.0
20260905224105 68 210 1.0 2.0 0.00 0.00 0.00 74 1015.0
20260905223605 68 210 0.0 3.0 0.00 0.00 0.00 74 1014.9
20260905223105 68 210 0.0 3.0 0.00 0.00 0.00 73 1014.9
20260905222604 68 210 1.0 2.0 0.00 0.00 0.00 73 1014.9
20260905222106 68 210 0.0 2.0 0.00 0.00 0.00 72 1014.9
20260905221605 68 210 0.0 2.0 0.00 0.00 0.00 71 1015.0
20260905220605 69 210 1.0 3.0 0.00 0.00 0.00 71 1015.0
20260905220104 69 210 0.0 3.0 0.00 0.00 0.00 70 1015.0
20260905215606 69 210 1.0 3.0 0.00 0.00 0.00 69 1015.1
20260905215104 69 210 1.0 3.0 0.00 0.00 0.00 69 1015.1
20260905214604 69 210 1.0 3.0 0.00 0.00 0.00 69 1015.0
20260905214108 69 212 1.0 3.0 0.00 0.00 0.00 69 1015.1
20260905213605 69 210 1.0 3.0 0.00 0.00 0.00 67 1015.1
20260905213104 69 213 1.0 3.0 0.00 0.00 0.00 67 1015.1
20260905212606 69 210 1.0 3.0 0.00 0.00 0.00 68 1015.2
20260905212104 69 212 1.0 3.0 0.00 0.00 0.00 67 1015.1
20260905211105 69 210 1.0 3.0 0.00 0.00 0.00 68 1015.3
20260905210605 68 210 1.0 3.0 0.00 0.00 0.00 69 1015.3
20260905210105 68 210 1.0 2.0 0.00 0.00 0.00 70 1015.2
20260905205104 68 210 1.0 3.0 0.00 0.00 0.00 71 1015.2
20260905204605 67 210 1.0 3.0 0.00 0.00 0.00 71 1015.3
20260905204105 67 210 1.0 3.0 0.00 0.00 0.00 71 1015.3
20260905203604 67 210 1.0 3.0 0.00 0.00 0.00 73 1015.4
20260905203104 67 209 0.0 2.0 0.00 0.00 0.00 72 1015.4
20260905202604 67 209 0.0 2.0 0.00 0.00 0.00 72 1015.5
20260905202104 67 209 0.0 3.0 0.00 0.00 0.00 71 1015.5
20260905201604 67 209 0.0 3.0 0.00 0.00 0.00 71 1015.5
20260905201105 67 209 0.0 3.0 0.00 0.00 0.00 71 1015.5
20260905200604 67 209 0.0 2.0 0.00 0.00 0.00 71 1015.6
20260905200106 68 209 0.0 2.0 0.00 0.00 0.00 71 1015.7
20260905195604 68 210 0.0 3.0 0.00 0.00 0.00 71 1015.6
20260905194604 68 209 1.0 3.0 0.00 0.00 0.00 71 1015.7
20260905194104 67 210 0.0 3.0 0.00 0.00 0.00 71 1015.7
20260905193605 67 210 0.0 3.0 0.00 0.00 0.00 72 1015.7
20260905193105 67 210 0.0 2.0 0.00 0.00 0.00 71 1015.7
20260905192604 67 210 1.0 2.0 0.00 0.00 0.00 72 1015.6
20260905191605 67 210 1.0 3.0 0.00 0.00 0.00 72 1015.6
20260905191105 66 216 1.0 3.0 0.00 0.00 0.00 72 1015.6
20260905190604 66 216 1.0 3.0 0.00 0.00 0.00 74 1015.6
20260905190104 65 216 0.0 2.0 0.00 0.00 0.00 74 1015.6
20260905185604 65 216 0.0 2.0 0.00 0.00 0.00 74 1015.6
20260905185104 65 216 0.0 2.0 0.00 0.00 0.00 74 1015.6
20260905184604 65 216 0.0 2.0 0.00 0.00 0.00 73 1015.6
20260905184105 65 216 0.0 2.0 0.00 0.00 0.00 75 1015.6
20260905183604 65 216 0.0 2.0 0.00 0.00 0.00 75 1015.6
20260905182104 64 216 0.0 3.0 0.00 0.00 0.00 77 1015.7
20260905181105 63 216 0.0 3.0 0.00 0.00 0.00 79 1015.8
20260905180604 62 215 1.0 3.0 0.00 0.00 0.00 82 1015.8
20260905180105 62 215 0.0 2.0 0.00 0.00 0.00 83 1015.8
20260905175607 61 215 0.0 2.0 0.00 0.00 0.00 83 1015.9
20260905173606 61 215 0.0 1.0 0.00 0.00 0.00 85 1015.8
20260905173104 60 215 0.0 1.0 0.00 0.00 0.00 86 1015.8
20260905172605 60 215 0.0 1.0 0.00 0.00 0.00 87 1015.8
20260905172105 60 215 0.0 2.0 0.00 0.00 0.00 87 1015.8
20260905171104 60 215 0.0 2.0 0.00 0.00 0.00 89 1015.7
20260905170604 60 215 0.0 3.0 0.00 0.00 0.00 89 1015.7
20260905170104 60 215 1.0 3.0 0.00 0.00 0.00 90 1015.7
20260905165604 59 215 0.0 2.0 0.00 0.00 0.00 89 1015.7
20260905164604 59 215 0.0 2.0 0.00 0.00 0.00 90 1015.7
20260905164104 59 215 0.0 2.0 0.00 0.00 0.00 90 1015.7
20260905163604 59 215 0.0 2.0 0.00 0.00 0.00 90 1015.7
20260905163104 58 215 1.0 3.0 0.00 0.00 0.00 90 1015.6
20260905162605 58 215 0.0 3.0 0.00 0.00 0.00 90 1015.5
20260905162104 58 215 1.0 3.0 0.00 0.00 0.00 90 1015.5
20260905161605 58 215 1.0 3.0 0.00 0.00 0.00 91 1015.5
20260905160605 58 215 0.0 0.0 0.00 0.00 0.00 91 1015.4
20260905155604 57 215 0.0 0.0 0.00 0.00 0.00 90 1015.3
20260905155105 57 215 0.0 0.0 0.00 0.00 0.00 90 1015.4
20260905154603 57 215 0.0 0.0 0.00 0.00 0.00 90 1015.4
20260905153603 56 215 0.0 0.0 0.00 0.00 0.00 90 1015.4
20260905153104 56 215 0.0 0.0 0.00 0.00 0.00 90 1015.4
20260905152604 56 215 0.0 0.0 0.00 0.00 0.00 90 1015.4
20260905152105 55 215 0.0 0.0 0.00 0.00 0.00 90 1015.5
20260905151104 55 215 0.0 0.0 0.00 0.00 0.00 90 1015.5
20260905150604 55 215 0.0 0.0 0.00 0.00 0.00 90 1015.4
20260905150104 55 215 0.0 0.0 0.00 0.00 0.00 90 1015.5
20260905145604 55 215 0.0 0.0 0.00 0.00 0.00 90 1015.4
20260905144606 54 215 0.0 0.0 0.00 0.00 0.00 90 1015.4
20260905144103 54 215 0.0 0.0 0.00 0.00 0.00 90 1015.4
20260905143604 53 3 0.0 0.0 0.00 0.00 0.00 88 1015.4
20260905143104 53 3 0.0 0.0 0.00 0.00 0.00 88 1015.3
20260905142104 53 2 0.0 0.0 0.00 0.00 0.00 88 1015.1